User: anonymous   Login
Location: Unspecified
(0.0000°N, 0.0000°E)
Time: 07:25:54
(UTC+00:00)
Language:

Gurwin Techsat 1B - Orbit

View from above orbital plane
View from above orbital plane
View from above satellite
View from above satellite

Ground track
Ground track

The orbit data is extracted from the following two-line orbital elements,

1 25397U 98043D   19082.82242845 -.00000009 +00000-0 +15056-4 0  9996
2 25397 098.6813 024.0562 0000467 352.0225 008.0946 14.23662102075295
Epoch (UTC): 23 March 2019 19:44:17
Eccentricity: 0.0000467
inclination: 98.6813°
perigee height: 812 km
apogee height: 813 km
right ascension of ascending node: 24.0562°
argument of perigee: 352.0225°
revolutions per day: 14.23662102
mean anomaly at epoch: 8.0946°
orbit number at epoch: 7529

The dashed part of the orbit path shows where the satellite is in the earth's shadow,  

DLR